Location: Harwich
(41.7160°N, 69.9939°W)
Time: 02:00:30
(UTC+02:00)

AO-27 - Pass Details

Date: 24 September 2024
Orbit: 783 x 796 km, 98.8° (Epoch: 04 October)

Event Time Altitude Azimuth Distance (km) Brightness Sun altitude
Exits shadow 04:19:44 22° 300° (WNW) 1,686 9.8 -39.2°
Drops below altitude 10° 04:22:08 10° 323° (NW) 2,361 10.8 -39.6°
Sets 04:24:47 0° 335° (NNW) 3,292 11.7 -39.9°
